Regional Weather Roundup
Issued by NWS

Home | Current Version | Previous Version | Graphics & Text | Print | Product List | Glossary On
Versions: 1 2 3 4 5 6 7 8 9 10 11 12 13 14 15 16 17 18 19 20 21 22 23 24 25 26 27 28 29 30 31 32 33 34 35 36 37 38 39 40 41 42 43 44 45 46 47 48 49 50
000
ASUS43 KDMX 181301
RWRIA

WEATHER ROUNDUP FOR IOWA
NATIONAL WEATHER SERVICE DES MOINES IA
700 AM CST SUN FEB 18 2018

NOTE: "FAIR" INDICATES FEW OR NO CLOUDS BELOW 12,000 FEET WITH NO
SIGNIFICANT WEATHER AND/OR OBSTRUCTIONS TO VISIBILITY.

* - THESE STATIONS ARE NOT NWS STATIONS...THUS NOT UNDER NWS
QUALITY CONTROL.  THEY ALSO DO NOT REPORT WEATHER SUCH
AS PRECIPITATION OR FOG.

IAZ001>003-012>014-020>022-031>034-043>046-181400-
   NORTHWEST IOWA

CITY           SKY/WX    TMP DP  RH WIND       PRES   REMARKS
CARROLL *      CLEAR     34  25  69 S25       29.88F WCI  21
CHEROKEE *     CLEAR     31  24  77 S14G22    29.80F WCI  20
DENISON *      PTCLDY    34  25  69 S23G31    29.86F WCI  22
LE MARS *      MIX PCPN  34  25  69 S28G35    29.71F WCI  20
ORANGE CITY *  CLOUDY    30  27  86 S15G21    29.72F WCI  19
SHELDON *      PTCLDY    28  25  86 MISG      29.71F
SIOUX CITY     CLEAR     33  23  66 S24G31    29.75F WCI  20
SPENCER        CLOUDY    28  22  78 SE26G33   29.79F WCI  13
STORM LAKE *   CLEAR     28  23  80 S26G32    29.80F WCI  13
$$

IAZ055>058-069>071-079>083-090>094-181400-
   SOUTHWEST IOWA

CITY           SKY/WX    TMP DP  RH WIND       PRES   REMARKS
ATLANTIC *     CLOUDY    36  25  64 S13       29.92F WCI  27
AUDUBON *      PTCLDY    34  27  75 S20G28    29.90F WCI  22
CLARINDA *     CLOUDY    36  28  75 S9        29.98F WCI  29
COUNCIL BLFS * CLOUDY    34  27  75 S17       29.87F WCI  23
CRESTON *      CLOUDY    30  23  74 SE10      29.99F WCI  21
HARLAN  *      PTCLDY    34  27  75 S15       29.92F WCI  24
LAMONI         CLOUDY    30  21  69 S10       30.03F WCI  21
RED OAK *      CLOUDY    37  25  60 S18G26    29.93F WCI  27
SHENANDOAH *   CLOUDY    36  27  69 S16       29.94F WCI  26
$$

IAZ047>049-059>061-072>074-084-181400-
   CENTRAL IOWA

CITY           SKY/WX    TMP DP  RH WIND       PRES   REMARKS
AMES           CLEAR     24  21  88 SE10      30.00F WCI  14
ANKENY *       CLEAR     28  25  86 S14       30.02F WCI  17
BOONE *        CLEAR     27  23  86 SE15      29.96F WCI  15
CHARITON *     CLOUDY    30  25  80 SE14      30.04F WCI  20
DES MOINES     CLOUDY    29  23  78 SE14      30.01F WCI  18
GRINNELL*      CLEAR     26  24  93 SE12      30.09F WCI  15
KNOXVILLE *    CLOUDY    30  23  74 SE12      30.04F WCI  21
MARSHALLTOWN   CLEAR     23  21  92 SE14      30.05F WCI  11
NEWTON *       CLEAR     25  23  93 SE12      30.06F WCI  14
PELLA *        CLOUDY    27  24  88 SE12      30.09F WCI  16
PERRY *        FAIR      28  25  88 SE16      29.96F WCI  17
$$

IAZ004>006-015-016-023>025-035-036-181400-
   NORTH CENTRAL IOWA

CITY           SKY/WX    TMP DP  RH WIND       PRES   REMARKS
CLARION *      CLOUDY    23  23 100 SE24      29.94F WCI   7
ESTHERVILLE    CLOUDY    22  20  92 SE26      29.81F WCI   5
FORT DODGE *   CLEAR     30  25  81 S17G26    29.90F WCI  18
MASON CITY     PTCLDY    21  18  88 SE17      29.99F WCI   7
FOREST CITY *  FAIR      25  25 100 SE21G28   29.94F WCI  10
WEBSTER CITY * FLURRIES  25  23  93 SE25      29.92F WCI   9
IOWA FALLS *   FAIR      22  20  94 SE12      30.02F WCI  10
$$

IAZ007>011-017>019-026>030-037>042-050>054-066-181400-
   NORTHEAST IOWA

CITY           SKY/WX    TMP DP  RH WIND       PRES   REMARKS
CEDAR RAPIDS   FOG       22  18  85 SE9       30.13S VSB 1/4 WCI  12
CHARLES CITY * CLOUDY    19  19 100 SE14      30.03F WCI   6
CLINTON *      SNOW      15  14  95 SE7       30.20R VSB<1/4 WCI   5
DECORAH *      FAIR      19  19 100 S10       30.06F WCI   8
DUBUQUE        FOG       16  12  84 S5        30.12F VSB 1/4 WCI   9
MONTICELLO *   FOG       18  16  93 S7        30.16R VSB<1/4 WCI   8
OELWEIN *      FOG       16  16 100 SE10      30.09F VSB<1/4 WCI   3
WATERLOO       CLOUDY    19  18  95 SE12      30.08F FOG     WCI   7
$$

IAZ064-065-067-068-078-181400-
   EAST CENTRAL IOWA

CITY           SKY/WX    TMP DP  RH WIND       PRES   REMARKS
DAVENPORT      CLOUDY    21  16  81 S9        30.21R HAZE    WCI  11
IOWA CITY      FOG       18  14  84 SE5       30.18S VSB 1/4 WCI  11
MT. PLEASANT * CLOUDY    27  25  93 S7        30.18S WCI  19
MUSCATINE *    FOG       16  14  93 CALM      30.21R VSB<1/4
QUAD CITIES    FOG       18  15  88 CALM      30.21R VSB 1
$$

IAZ062-063-075>077-085>089-095>099-181400-
   SOUTHEAST IOWA

CITY           SKY/WX    TMP DP  RH WIND       PRES   REMARKS
BURLINGTON     CLOUDY    27  23  85 S8        30.19S WCI  19
FAIRFIELD *    CLOUDY    28  25  86 S13       30.15S WCI  18
FORT MADISON * CLOUDY    28  27  93 S9        30.20R WCI  20
KEOKUK *       CLOUDY    30  27  86 S7        30.20R WCI  23
OSKALOOSA *    FAIR      25  23  92 S13       30.11F WCI  13
OTTUMWA        CLOUDY    29  23  78 S14       30.11F WCI  18
WASHINGTON *   CLOUDY    19  21 100 S8        30.18R FOG     WCI   9
$$

ABBREVIATIONS USED IN REMARKS
   TC - TEMPERATURES IN CELSIUS
  WCI - WIND CHILL INDEX
   HX - HEAT INDEX
  VSB - VISIBILITY
$$





USA.gov is the U.S. government's official web portal to all federal, state and local government web resources and services.